Temperature
20 20 20 21 25 29 29 29 29 28 28 26 26 26 27 27 27 25 21 21 20 20 19 20 20 20 20 20 20 20 20 20 20 19 19 19 19 19 19 19 19 18 18 18 18 18 18 18 18
20 20 21 24 28 29 29 29 28 28 27 25 25 25 26 25 23 21 21 20 20 20 19 19 20 20 20 20 20 20 20 20 20 19 19 19 19 19 19 19 18 18 18 18 18 18 18 18 18
20 20 24 28 29 29 29 29 29 28 26 25 25 25 25 24 22 20 20 20 20 19 19 19 20 19 19 19 20 20 20 20 20 19 19 19 19 19 19 19 18 18 18 18 18 18 18 18 18
21 23 26 29 29 29 29 29 28 28 26 25 26 25 24 21 21 20 20 20 20 19 19 19 20 19 19 19 19 20 20 20 19 19 19 19 19 19 19 19 18 18 18 18 18 18 18 18 18
22 26 29 29 30 29 29 28 28 28 27 26 26 26 24 20 20 20 20 20 20 20 19 19 19 19 19 19 19 19 19 19 19 19 19 19 19 19 19 19 18 18 18 18 18 18 18 18 18
25 28 29 30 29 29 29 28 28 28 27 26 25 26 22 20 19 19 20 20 20 20 19 19 19 19 19 19 19 19 19 19 19 19 19 19 19 18 18 18 18 18 18 18 18 18 18 18 18
27 29 29 29 29 29 29 27 28 28 27 26 25 26 22 19 19 19 20 20 20 20 19 18 18 19 19 19 19 19 19 19 19 19 19 19 18 18 18 18 18 18 18 18 18 18 18 18 18
25 29 29 29 29 29 29 27 26 26 26 24 24 25 23 19 19 19 19 19 19 19 19 19 19 18 18 18 19 19 19 19 19 19 19 18 18 18 18 18 18 18 18 18 18 18 18 18 18
25 28 29 30 29 30 29 28 26 25 25 24 23 23 22 19 19 19 19 19 19 19 19 19 19 18 18 18 18 18 19 19 18 18 18 18 17 17 17 17 18 18 18 18 18 18 18 18 18
26 29 29 29 29 30 28 27 27 26 26 25 23 21 20 19 19 19 19 19 19 18 18 18 18 18 18 18 18 18 18 18 18 17 17 17 17 17 17 17 17 17 17 17 17 17 17 17 17
28 28 29 29 28 28 28 27 26 27 27 25 24 21 19 19 19 19 19 19 19 18 18 18 18 18 18 18 18 18 18 18 17 17 17 17 17 17 17 17 17 17 17 17 17 17 17 17 17
28 29 28 28 27 27 27 27 27 26 25 22 22 21 20 19 19 19 19 19 19 18 18 18 18 18 18 18 18 18 18 18 17 17 17 17 17 17 17 17 17 17 17 17 17 17 16 16 16
28 29 28 27 27 26 26 27 26 25 23 21 21 20 20 19 19 19 19 19 18 18 18 18 18 18 18 18 18 18 18 18 17 17 17 17 17 17 17 17 17 17 16 16 16 16 16 16 16
29 28 28 27 27 26 26 26 25 24 22 21 21 20 19 19 19 19 18 18 18 18 18 18 18 18 18 18 18 18 18 18 17 17 17 17 17 17 16 16 16 16 16 16 16 16 16 16 16
28 28 29 28 27 26 26 27 26 24 22 21 21 20 19 19 19 18 18 18 18 18 18 18 18 18 18 18 18 18 17 17 17 17 17 17 16 16 16 16 16 16 16 16 16 15 15 15 16
29 29 29 29 28 26 26 27 26 23 22 22 21 20 19 18 18 18 18 18 18 18 18 18 18 18 18 18 18 17 17 17 17 17 16 16 16 16 16 16 16 15 15 15 15 15 15 15 15
29 30 29 29 28 27 27 27 26 23 22 22 21 20 19 18 18 18 18 18 18 18 18 18 18 18 18 18 18 17 17 17 17 16 16 16 16 16 15 15 15 15 15 15 15 15 15 15 15
29 29 29 29 28 27 27 27 26 24 23 22 21 20 19 18 18 18 18 18 18 18 18 18 18 18 18 18 17 17 17 17 16 16 16 16 15 15 15 15 15 15 15 15 14 14 14 14 15
29 29 29 29 28 27 27 27 26 25 23 23 21 20 19 19 18 18 18 18 18 18 18 18 18 18 18 17 17 17 17 16 16 16 16 15 15 15 15 15 15 14 14 14 14 14 14 15 14
29 29 29 28 27 27 27 27 26 25 24 23 22 21 20 19 18 17 17 17 18 18 18 18 18 18 18 17 17 17 17 16 16 16 16 15 15 15 15 14 14 14 14 14 14 14 14 14 14
29 29 29 28 27 27 26 27 26 25 23 22 22 21 20 20 19 18 17 17 18 18 18 18 18 18 18 17 17 17 17 16 16 16 15 15 15 15 14 14 14 14 14 14 13 13 13 14 14
29 29 28 28 27 28 27 27 27 26 24 23 22 21 21 20 20 19 18 18 18 18 18 18 18 18 18 17 17 17 17 16 16 16 15 15 15 14 14 14 14 14 14 14 14 13 13 13 15
29 28 28 28 28 28 27 27 28 26 25 24 23 22 21 21 20 19 19 18 18 18 18 18 18 18 18 17 17 17 16 16 16 16 15 15 15 14 14 14 14 14 14 13 13 13 13 13 14
28 27 27 27 28 27 27 27 27 27 26 26 24 22 22 21 20 20 19 18 18 18 18 18 18 18 18 18 17 17 16 16 16 16 15 15 15 14 14 14 14 14 13 13 13 13 13 13 13
28 28 27 27 27 28 27 27 28 28 27 26 25 23 22 21 21 20 19 19 18 18 18 18 18 18 18 18 17 17 17 16 16 16 15 15 15 15 14 14 14 13 13 13 13 13 13 12 12
28 28 27 26 27 28 27 27 28 28 26 25 24 24 22 22 21 20 20 19 18 18 18 18 18 18 18 18 18 17 17 16 16 16 16 15 15 15 14 14 14 13 13 13 13 13 12 12 12
28 28 29 28 28 27 28 28 28 27 26 26 25 24 23 22 22 21 20 20 19 19 18 18 18 18 18 18 18 18 17 16 16 16 16 15 15 15 14 14 14 13 13 13 13 13 12 12 12
28 29 28 28 26 26 27 28 28 27 27 26 26 25 24 23 22 22 21 20 20 19 19 18 18 18 18 18 18 18 17 17 16 16 16 15 15 15 14 14 14 13 13 13 13 12 12 12 12
27 27 27 28 27 26 26 28 29 28 28 27 26 25 24 24 23 22 22 21 20 20 19 19 19 19 19 18 18 18 17 17 17 16 16 16 15 15 14 14 14 14 13 13 13 13 12 12 12
28 28 28 26 26 27 27 28 29 28 28 27 27 26 25 24 24 23 22 21 21 20 20 19 19 19 19 19 18 18 18 17 17 16 16 16 15 15 15 14 14 14 13 13 13 13 13 12 12
Wind_Speed
11 8 5 4 5 4 0 2 1 2 2 2 3 2 1 1 0 4 8 18 19 20 21 21 18 18 17 17 17 17 16 16 15 15 14 13 12 12 11 10 10 10 10 11 11 11 10 11 11
7 5 5 5 6 3 2 1 1 1 3 4 3 2 2 1 4 7 11 18 21 21 22 21 20 18 18 17 17 16 16 16 15 14 13 12 12 11 11 10 9 9 10 10 10 10 10 10 10
6 6 5 5 4 3 1 1 1 2 4 5 3 2 1 2 5 7 12 21 21 19 20 21 20 18 18 17 16 16 16 15 14 14 13 12 11 11 10 10 9 9 9 9 9 10 9 9 9
5 5 5 7 4 1 2 1 2 4 5 5 4 3 3 3 4 8 17 21 21 19 20 22 20 19 18 17 16 16 15 15 14 13 12 11 10 10 10 9 8 9 9 9 9 9 8 8 8
6 5 7 6 3 0 2 2 3 5 4 5 5 3 4 3 6 14 19 21 20 19 19 22 19 19 18 17 16 15 15 14 13 12 11 10 10 10 9 9 8 8 8 8 8 8 7 7 7
5 5 7 3 1 0 1 1 4 5 4 3 4 4 4 5 10 16 19 19 19 19 19 21 19 17 17 16 15 14 14 13 12 11 10 9 9 8 8 8 7 7 6 6 6 6 6 5 5
6 5 4 2 1 1 1 1 3 3 5 4 3 3 6 8 12 15 17 17 17 17 17 18 19 17 15 15 14 14 13 13 12 11 10 9 8 7 7 6 6 6 6 5 5 5 5 4 4
5 4 3 2 2 0 2 0 1 3 2 1 3 4 6 11 14 15 15 15 15 15 15 16 17 16 16 15 14 13 12 12 11 10 9 8 7 7 6 7 6 5 5 5 5 4 4 3 3
5 5 2 1 3 2 1 2 1 1 2 3 2 1 7 16 16 16 16 14 15 14 13 14 15 14 14 14 14 13 12 11 11 10 9 8 7 7 7 5 7 4 4 4 4 4 3 3 4
5 4 2 4 6 6 4 5 3 4 6 5 5 6 12 16 17 17 18 17 17 15 14 12 12 12 12 11 12 10 11 11 9 8 8 6 4 2 3 8 4 3 3 4 4 3 4 6 4
5 5 5 5 6 7 6 4 4 6 6 3 5 10 15 16 16 16 17 17 16 15 14 13 11 11 11 8 9 7 7 8 7 7 6 4 4 3 2 3 4 4 4 3 3 4 4 4 3
6 7 7 7 6 6 6 4 4 5 3 1 3 10 16 17 16 16 16 15 15 15 14 13 12 10 9 8 7 7 6 6 6 6 5 5 3 2 1 1 1 2 1 1 2 2 3 4 4
9 7 6 6 6 5 5 5 4 3 1 2 5 10 14 15 15 15 14 14 14 14 13 12 11 10 9 7 6 6 5 5 6 5 4 3 3 2 2 1 0 1 1 2 2 2 2 4 4
5 7 8 6 4 3 5 4 4 2 3 5 7 10 12 14 13 13 14 14 14 13 13 12 11 10 9 7 5 5 5 4 5 5 5 3 3 2 2 2 0 1 1 1 1 1 2 3 3
8 9 8 5 4 3 5 6 5 3 5 6 8 9 10 11 12 13 13 13 14 13 12 12 11 10 9 8 7 6 6 6 5 5 6 4 3 3 1 1 0 1 0 1 1 1 2 3 3
8 9 6 3 4 3 6 4 4 5 7 7 8 9 10 10 11 12 13 13 12 12 12 12 11 11 9 7 6 6 5 5 5 6 6 5 4 3 1 1 1 1 0 0 0 1 2 1 2
7 6 7 1 4 4 6 5 3 6 7 8 8 10 11 11 12 11 11 12 12 12 12 12 10 10 10 8 7 6 6 5 6 5 5 6 5 4 2 2 3 1 1 1 1 1 2 1 2
7 9 8 6 1 6 8 6 3 6 7 8 10 10 11 12 13 11 11 11 11 11 11 11 10 9 9 8 7 6 6 6 6 5 6 6 5 4 2 3 3 1 2 2 2 2 2 3 3
10 10 10 6 2 5 8 7 5 6 7 8 10 11 12 12 11 11 11 10 11 11 11 12 11 10 9 8 8 7 7 6 6 6 7 6 5 5 2 3 3 1 2 2 1 2 0 2 3
10 10 8 3 1 5 7 8 5 6 7 8 10 11 13 13 13 12 12 11 12 13 13 12 11 11 11 8 7 6 6 6 6 5 7 6 6 5 4 2 2 2 2 2 1 1 2 2 2
9 9 9 7 4 6 7 7 5 6 6 7 9 11 12 14 15 15 13 13 13 13 14 12 12 12 11 10 8 7 6 6 6 6 6 6 6 5 3 3 1 2 1 2 1 1 2 2 1
9 5 6 6 8 6 4 7 2 5 7 9 10 11 13 14 15 16 15 14 14 14 14 13 12 12 11 11 10 10 8 7 7 6 6 7 7 6 5 4 3 2 1 2 1 2 1 2 2
6 3 5 7 9 8 4 7 1 5 6 9 11 12 14 15 16 16 16 16 15 14 13 13 12 12 11 11 10 10 8 7 6 6 7 7 6 6 6 6 4 3 2 1 1 1 2 2 3
3 4 6 7 8 5 3 5 2 1 3 6 10 13 14 15 16 16 15 15 14 14 13 13 13 13 12 12 12 11 9 8 7 7 7 7 6 6 7 7 5 5 3 3 3 2 2 1 2
7 8 7 5 4 2 2 5 3 1 4 6 10 13 14 15 15 16 16 16 16 16 15 15 15 14 14 13 12 11 10 9 9 8 8 7 6 7 8 7 6 5 4 4 3 3 2 2 2
8 9 8 7 7 6 2 3 3 3 5 7 9 12 13 15 15 16 17 16 17 17 17 16 16 15 15 14 12 11 11 9 8 8 7 7 6 6 7 7 7 6 6 6 4 4 4 3 3
6 8 8 9 10 8 3 2 1 5 7 9 11 13 14 16 16 17 17 17 17 18 18 17 17 16 15 14 13 12 11 10 8 8 8 7 6 6 8 8 7 7 7 6 6 4 4 4 5
7 6 5 7 7 7 5 4 2 4 8 11 12 14 15 16 17 17 17 18 17 17 17 17 17 16 15 15 13 11 12 11 10 9 9 7 7 7 8 8 8 8 7 7 7 6 5 5 5
7 8 8 8 7 8 7 3 4 0 5 10 12 13 15 16 17 17 17 17 17 17 17 17 17 16 15 15 14 13 12 12 11 10 10 9 9 9 9 9 8 8 8 8 7 7 6 7 6
9 11 10 9 8 8 9 5 5 2 3 6 9 11 13 15 16 17 17 17 17 18 18 18 17 17 16 15 14 14 13 12 12 12 11 11 10 10 10 9 9 9 9 8 8 8 8 8 8
Wind_Direction
183 197 224 240 242 232 115 95 77 148 150 132 156 204 210 154 145 106 129 152 150 150 147 152 151 148 144 141 138 136 134 133 132 130 128 126 123 120 115 109 106 105 102 99 97 96 95 95 96
186 202 230 242 257 242 132 127 188 142 106 140 162 197 201 123 68 109 141 151 152 151 151 155 150 150 147 143 141 139 136 134 133 132 130 127 123 120 116 111 108 105 103 100 99 97 94 94 93
192 228 254 249 253 288 57 96 273 141 154 177 177 209 287 95 125 139 149 153 153 150 150 148 153 152 149 146 144 142 139 137 135 133 132 129 125 119 114 110 108 105 105 103 101 98 96 93 91
207 225 238 249 243 321 328 319 256 192 179 202 204 162 115 66 132 142 148 154 151 151 153 150 157 153 151 150 148 144 142 140 138 135 132 130 127 122 117 113 109 107 106 104 103 101 99 97 91
236 249 240 235 237 261 287 303 240 217 200 196 206 166 113 86 122 139 149 154 154 156 154 151 158 155 154 153 151 147 144 142 140 137 133 130 129 127 123 118 111 109 108 108 106 105 101 96 88
230 244 247 241 165 244 276 277 233 226 209 190 205 181 96 112 136 146 151 157 158 156 155 149 157 157 156 155 154 152 149 145 144 142 138 135 133 129 128 124 119 113 110 108 108 107 103 94 86
264 258 266 279 242 195 49 320 245 238 219 201 205 173 123 135 140 146 151 156 158 158 154 154 161 161 158 157 156 154 150 148 147 146 143 141 141 135 133 132 131 129 123 120 117 113 109 100 88
280 265 232 223 258 41 69 218 320 261 218 148 215 201 150 149 147 147 150 155 159 160 160 160 164 163 166 165 161 157 153 152 150 150 150 149 152 154 151 163 137 134 136 140 139 132 124 116 100
259 250 239 336 312 352 36 267 190 235 197 185 196 38 127 146 150 152 154 158 162 164 164 166 163 166 171 169 160 162 160 159 162 163 160 179 180 165 169 129 122 140 144 150 157 161 160 180 170
241 262 14 347 317 314 307 277 260 225 220 207 174 129 137 151 158 162 164 166 167 167 169 168 167 166 174 169 159 171 172 164 178 161 169 183 158 159 148 119 140 157 166 169 169 192 215 240 219
241 274 325 313 310 303 286 266 246 258 252 237 195 160 156 161 166 171 172 171 168 169 171 170 169 169 175 166 166 170 166 159 170 161 164 161 164 167 178 167 167 179 194 199 173 211 246 258 278
253 268 282 292 304 288 277 269 252 258 306 11 185 168 165 169 172 175 175 174 169 171 173 171 169 172 176 172 168 169 167 166 163 154 174 164 163 170 168 181 182 192 192 189 236 239 260 273 269
245 271 280 280 276 275 264 258 268 263 281 148 161 167 171 174 175 175 173 174 172 173 174 172 172 170 171 170 183 168 166 165 150 147 157 161 167 169 151 118 292 271 230 195 225 247 249 261 258
274 275 275 270 265 240 248 244 235 210 163 154 159 168 174 174 174 175 173 174 175 174 174 171 175 172 171 169 172 158 159 155 150 154 149 158 146 129 144 171 193 290 299 1 271 267 258 261 269
268 269 257 228 227 220 250 234 220 181 176 171 168 166 171 172 175 178 177 177 177 175 177 175 175 173 173 172 173 161 165 165 159 145 138 137 124 119 141 129 177 26 343 213 248 260 256 251 246
247 254 265 164 213 211 251 289 133 163 184 182 173 169 172 175 182 183 178 177 177 177 178 178 178 172 171 169 167 159 167 158 153 148 140 132 115 120 138 112 76 57 280 242 221 270 271 273 273
226 290 321 334 199 223 248 292 143 174 192 189 182 178 179 179 182 184 181 178 177 179 176 174 174 170 166 161 156 155 151 152 151 150 143 138 136 135 128 88 82 143 82 48 321 48 324 321 319
323 318 318 320 222 241 258 273 219 189 201 198 188 184 181 182 182 177 177 177 176 178 173 170 170 165 157 155 151 152 151 154 152 147 136 144 143 137 125 119 105 83 74 64 49 41 17 330 325
302 302 308 324 296 259 267 271 247 197 203 202 193 186 182 183 176 173 179 180 178 176 173 174 171 166 166 166 165 164 163 160 154 152 145 148 140 137 135 113 122 94 75 42 24 344 337 338 337
283 292 304 307 246 268 282 274 249 206 209 206 197 190 187 181 175 179 183 183 184 183 181 178 176 175 176 166 162 165 156 160 158 159 151 157 154 156 153 131 148 116 117 111 58 351 333 9 357
284 298 315 314 287 244 279 261 207 188 195 198 199 194 190 185 180 179 183 185 185 186 184 182 180 178 174 162 163 155 152 166 169 171 169 170 169 170 158 163 154 148 186 109 96 359 349 342 2
290 321 301 290 281 298 288 309 183 186 192 196 199 197 190 187 185 182 184 186 186 185 182 179 176 175 170 170 176 174 181 182 179 181 171 172 180 179 176 178 172 188 154 134 193 79 333 311 329
302 317 281 280 283 289 260 291 78 172 207 199 195 193 190 186 186 186 187 187 184 180 178 174 173 174 176 181 180 187 191 184 177 178 167 183 179 186 187 185 180 186 194 155 83 130 305 309 325
219 232 243 247 261 273 344 300 340 159 205 183 183 187 189 187 186 186 185 183 181 178 176 172 173 178 181 184 186 195 190 188 184 186 182 193 187 189 189 190 191 198 192 179 194 210 213 304 335
226 259 272 262 249 320 50 289 343 85 180 180 179 182 185 187 185 184 182 182 181 179 178 177 177 181 183 187 190 193 193 194 197 201 197 206 199 195 186 194 195 200 194 197 202 210 241 231 243
236 260 279 299 307 319 226 296 14 130 166 176 178 178 180 184 185 184 184 183 182 182 181 181 182 184 186 189 192 194 196 203 203 204 210 205 210 200 177 191 196 198 198 202 203 226 217 224 241
239 246 284 283 280 283 287 289 207 154 177 181 181 179 182 184 185 186 185 186 185 185 185 186 185 187 189 191 192 195 199 208 203 190 206 206 201 190 184 192 193 195 199 208 215 234 232 229 240
261 267 250 268 283 282 279 282 336 164 183 184 187 188 185 186 188 189 188 189 189 189 188 190 190 192 193 193 196 197 198 200 198 201 201 198 193 191 188 193 196 198 200 205 221 228 219 232 237
206 225 246 263 277 285 294 320 48 110 188 190 191 191 189 190 190 190 191 192 192 191 190 191 194 195 197 198 199 200 198 197 197 199 197 193 194 191 196 198 200 203 206 209 217 235 224 231 238
242 245 236 250 260 260 282 298 80 87 172 189 193 190 191 191 192 192 192 192 193 194 194 194 197 199 200 199 199 200 199 197 199 200 198 194 194 197 199 202 205 210 212 213 219 228 229 232 238
Height
1523 1524 1525 1527 1520 1509 1507 1506 1505 1507 1508 1512 1513 1513 1512 1513 1515 1523 1525 1527 1531 1535 1538 1541 1544 1548 1550 1553 1555 1556 1558 1559 1560 1561 1562 1563 1564 1565 1565 1566 1567 1567 1568 1568 1569 1569 1570 1570 1570
1525 1526 1527 1524 1512 1510 1510 1505 1506 1507 1510 1514 1515 1515 1514 1516 1519 1522 1523 1527 1531 1536 1539 1542 1545 1549 1551 1554 1556 1558 1559 1561 1562 1563 1564 1565 1566 1566 1567 1568 1568 1569 1570 1570 1571 1571 1571 1572 1572
1526 1526 1526 1514 1507 1508 1507 1505 1505 1508 1513 1514 1515 1515 1516 1518 1520 1522 1523 1527 1532 1537 1540 1543 1546 1550 1553 1555 1557 1559 1560 1562 1563 1564 1565 1566 1567 1568 1569 1569 1570 1571 1571 1572 1572 1573 1573 1574 1574
1527 1527 1523 1512 1506 1504 1505 1505 1506 1508 1512 1514 1514 1515 1518 1521 1521 1522 1524 1528 1533 1537 1541 1544 1547 1551 1554 1556 1558 1560 1562 1563 1564 1565 1567 1568 1569 1569 1570 1571 1571 1572 1573 1573 1574 1575 1575 1576 1576
1527 1522 1512 1506 1505 1504 1505 1506 1507 1507 1510 1512 1514 1514 1518 1521 1521 1522 1525 1530 1535 1539 1543 1545 1549 1552 1555 1557 1559 1561 1562 1564 1565 1567 1568 1569 1570 1571 1571 1572 1573 1574 1574 1575 1575 1576 1577 1577 1578
1524 1517 1509 1506 1505 1505 1505 1507 1507 1507 1510 1513 1514 1514 1520 1522 1522 1524 1527 1532 1537 1541 1545 1546 1550 1553 1556 1558 1560 1562 1564 1565 1566 1568 1569 1570 1571 1572 1573 1573 1574 1575 1576 1576 1577 1577 1578 1579 1579
1521 1511 1507 1506 1507 1504 1505 1508 1508 1507 1510 1513 1514 1515 1520 1522 1524 1526 1529 1534 1538 1542 1546 1548 1551 1554 1556 1559 1561 1563 1564 1566 1567 1568 1570 1571 1572 1573 1574 1574 1575 1576 1576 1577 1578 1578 1579 1580 1580
1522 1513 1507 1505 1506 1504 1506 1508 1510 1510 1511 1515 1516 1515 1519 1523 1524 1527 1531 1535 1539 1543 1546 1549 1553 1555 1557 1559 1561 1563 1565 1566 1568 1569 1570 1571 1573 1574 1574 1576 1576 1577 1577 1578 1578 1579 1580 1580 1581
1523 1514 1506 1504 1504 1502 1505 1508 1510 1512 1513 1515 1516 1517 1519 1521 1524 1528 1531 1535 1539 1543 1546 1550 1553 1555 1558 1561 1562 1563 1565 1566 1568 1570 1571 1572 1574 1575 1576 1576 1576 1577 1578 1578 1579 1579 1580 1581 1581
1519 1509 1505 1505 1505 1503 1505 1507 1508 1510 1510 1513 1516 1518 1519 1521 1524 1527 1530 1534 1538 1542 1546 1549 1553 1555 1558 1561 1562 1564 1566 1567 1569 1571 1572 1574 1575 1576 1576 1576 1576 1577 1578 1578 1579 1579 1580 1581 1582
1515 1510 1506 1506 1507 1507 1505 1506 1508 1507 1506 1510 1514 1517 1519 1521 1524 1527 1530 1534 1538 1541 1545 1549 1552 1554 1558 1560 1562 1564 1567 1567 1569 1570 1571 1573 1574 1575 1576 1577 1577 1577 1578 1579 1578 1579 1580 1581 1581
1513 1509 1509 1508 1508 1507 1506 1506 1506 1507 1509 1512 1514 1516 1518 1520 1523 1526 1530 1533 1537 1541 1544 1548 1551 1553 1556 1560 1562 1564 1566 1567 1569 1569 1571 1573 1574 1575 1575 1576 1576 1577 1577 1577 1578 1578 1579 1579 1579
1511 1508 1507 1507 1507 1507 1506 1506 1507 1508 1510 1511 1513 1515 1517 1520 1523 1526 1529 1533 1536 1540 1544 1547 1550 1553 1555 1558 1561 1563 1565 1567 1568 1569 1570 1571 1573 1574 1575 1575 1575 1576 1576 1577 1576 1577 1577 1577 1578
1506 1506 1505 1505 1505 1506 1505 1505 1507 1507 1510 1511 1512 1514 1516 1519 1522 1525 1528 1531 1535 1539 1543 1546 1549 1552 1555 1557 1560 1562 1565 1566 1568 1568 1569 1571 1573 1573 1574 1574 1574 1575 1575 1575 1575 1576 1576 1576 1576
1507 1504 1500 1500 1503 1504 1504 1502 1503 1506 1509 1510 1512 1513 1516 1519 1521 1523 1527 1531 1534 1538 1542 1545 1548 1551 1554 1557 1559 1562 1564 1565 1567 1568 1569 1570 1572 1572 1573 1574 1573 1574 1574 1573 1574 1574 1575 1575 1575
1501 1498 1495 1495 1500 1502 1504 1499 1501 1506 1508 1509 1511 1512 1515 1518 1521 1524 1527 1530 1533 1537 1541 1544 1547 1550 1553 1556 1559 1561 1564 1565 1567 1568 1569 1570 1571 1571 1572 1573 1573 1572 1573 1573 1573 1573 1574 1574 1574
1494 1494 1493 1493 1497 1498 1499 1497 1500 1504 1506 1507 1509 1511 1514 1517 1520 1523 1526 1529 1532 1536 1539 1543 1546 1549 1552 1555 1558 1560 1562 1564 1566 1567 1569 1569 1570 1570 1572 1572 1571 1572 1572 1572 1573 1573 1573 1574 1573
1497 1493 1492 1492 1492 1496 1496 1494 1497 1502 1504 1505 1507 1510 1512 1515 1518 1521 1524 1528 1530 1534 1538 1541 1545 1548 1551 1554 1556 1559 1561 1563 1565 1567 1568 1568 1569 1570 1571 1571 1570 1572 1572 1572 1572 1572 1572 1572 1572
1494 1494 1493 1490 1491 1494 1493 1492 1493 1498 1501 1503 1505 1508 1510 1513 1516 1519 1522 1525 1529 1533 1536 1540 1543 1546 1549 1553 1556 1558 1560 1562 1564 1566 1567 1568 1569 1569 1570 1572 1570 1571 1572 1571 1572 1572 1572 1572 1571
1492 1493 1489 1488 1491 1492 1491 1490 1489 1494 1497 1500 1502 1505 1508 1511 1515 1518 1521 1524 1528 1531 1535 1538 1542 1545 1548 1551 1554 1557 1559 1561 1563 1565 1566 1567 1568 1568 1570 1570 1571 1571 1570 1570 1571 1571 1572 1572 1571
1489 1489 1488 1489 1489 1489 1491 1486 1487 1491 1496 1498 1500 1503 1505 1508 1512 1516 1519 1523 1526 1529 1532 1536 1540 1543 1546 1549 1553 1555 1557 1560 1562 1564 1565 1566 1567 1568 1568 1569 1570 1570 1571 1571 1570 1570 1571 1571 1571
1488 1485 1487 1489 1490 1485 1490 1491 1483 1486 1491 1495 1497 1499 1502 1506 1510 1514 1517 1520 1524 1528 1531 1535 1538 1541 1545 1548 1551 1554 1556 1559 1561 1563 1564 1564 1565 1566 1567 1568 1568 1569 1570 1569 1570 1570 1570 1570 1571
1485 1487 1486 1486 1487 1487 1484 1489 1480 1483 1486 1488 1493 1496 1499 1503 1507 1511 1515 1519 1523 1526 1530 1533 1536 1539 1543 1546 1549 1552 1555 1558 1560 1561 1562 1563 1564 1564 1566 1566 1567 1567 1569 1568 1568 1568 1568 1569 1569
1486 1487 1486 1485 1483 1491 1485 1489 1483 1477 1480 1483 1488 1493 1497 1501 1505 1509 1513 1517 1521 1524 1528 1531 1534 1537 1540 1544 1547 1550 1553 1555 1557 1559 1560 1561 1562 1563 1564 1565 1565 1566 1567 1567 1567 1567 1567 1567 1567
1485 1488 1493 1493 1491 1488 1482 1486 1480 1473 1476 1480 1485 1490 1494 1499 1502 1507 1511 1514 1518 1522 1526 1529 1532 1535 1539 1542 1545 1548 1551 1553 1555 1557 1558 1559 1561 1562 1561 1563 1563 1564 1565 1565 1565 1565 1566 1566 1566
1481 1483 1496 1504 1497 1485 1480 1483 1472 1472 1476 1480 1484 1488 1492 1496 1500 1504 1508 1511 1515 1519 1523 1527 1530 1533 1537 1540 1543 1546 1548 1551 1553 1554 1556 1557 1559 1560 1559 1560 1561 1562 1563 1564 1563 1565 1565 1564 1564
1478 1479 1473 1483 1484 1489 1479 1474 1468 1471 1475 1479 1482 1486 1490 1494 1498 1502 1505 1509 1513 1517 1521 1524 1528 1531 1535 1538 1541 1543 1545 1548 1550 1551 1552 1554 1555 1556 1556 1557 1558 1559 1560 1561 1561 1563 1562 1562 1563
1475 1472 1479 1483 1496 1496 1483 1477 1471 1470 1472 1475 1479 1483 1487 1491 1495 1499 1503 1507 1511 1515 1518 1522 1525 1528 1532 1535 1538 1540 1543 1545 1546 1548 1550 1551 1552 1553 1554 1555 1556 1557 1558 1558 1559 1560 1560 1560 1560
1478 1479 1477 1476 1479 1492 1492 1480 1462 1465 1468 1471 1475 1480 1484 1488 1492 1496 1500 1504 1508 1512 1516 1519 1522 1525 1528 1532 1534 1537 1539 1541 1543 1545 1546 1547 1548 1549 1551 1552 1553 1554 1555 1556 1556 1558 1558 1558 1558
1468 1470 1474 1485 1484 1482 1484 1477 1461 1464 1466 1470 1473 1477 1481 1485 1489 1493 1498 1502 1505 1509 1512 1515 1519 1522 1525 1528 1530 1533 1536 1538 1539 1541 1543 1544 1545 1546 1547 1549 1550 1551 1553 1553 1554 1554 1555 1555 1555